Location: Unspecified
(35.6961°N, 0.0000°E)
Time: 09:22:40
(UTC+00:00)

Vanguard 3 - Pass Details

Date: 27 May 2019
Orbit: 508 x 3263 km, 33.3° (Epoch: 19 June)

Event Time Altitude Azimuth Distance (km) Brightness Sun altitude
Rises 22:07:41 0° 270° (W) 3,508 10.8 -27.3°
Reaches altitude 10° 22:09:44 10° 269° (W) 2,796 10.2 -27.5°
Maximum altitude 22:16:38 76° 184° (S) 1,511 8.2 -28.2°
Enters shadow 22:23:58 26° 104° (ESE) 3,271 9.8 -28.8°
Drops below altitude 10° 22:29:27 10° 102° (ESE) 4,943 - -29.3°
Exits shadow 22:31:30 - 101° (ESE) 5,551 11.1 -29.4°
Sets 22:34:18 0° 101° (E) 6,357 11.4 -29.7°
